Location: Observatoire de Paris
(48.8363°N, 2.3365°E)
Time: 02:45:55
(UTC+01:00)

Vanguard 3 - Pass Details

Date: 01 August 2021
Orbit: 510 x 3260 km, 33.3° (Epoch: 18 September)

Event Time Altitude Azimuth Distance (km) Brightness Sun altitude
Rises 00:41:43 0° 275° (W) 7,134 12.1 -23.1°
Reaches altitude 10° 00:47:40 10° 265° (W) 6,197 11.6 -23.1°
Maximum altitude 01:01:52 26° 220° (SW) 4,700 10.5 -23.1°
Enters shadow 01:04:47 25° 206° (SSW) 4,637 10.4 -23.1°
